EW7507 Weather Reports


time (UTC)temp
C
wind
direction
speed
KPH
gust
KPH
rain 1hr
cm
rain 24hr
cm
rain mn
cm
humidity
%
barometer
mb
20260509055301 15 226 0.0 4.8 0.00 0.00 0.00 48 971.6
20260509054800 15 227 0.0 19.3 0.00 0.00 0.00 47 971.7
20260509054300 16 234 0.0 19.3 0.00 0.00 0.00 46 971.6
20260509053800 16 190 0.0 16.1 0.00 0.00 0.00 46 971.6
20260509053307 16 226 0.0 8.0 0.00 0.00 0.00 45 971.6
20260509053300 16 243 0.0 16.1 0.00 0.00 0.00 46 971.6
20260509052301 16 206 0.0 1.6 0.00 0.00 0.00 43 971.6
20260509051801 16 257 0.0 1.6 0.00 0.00 0.00 43 971.5
20260509051300 16 257 0.0 1.6 0.00 0.00 0.00 43 971.5
20260509050801 16 257 0.0 0.0 0.00 0.00 0.00 42 971.5
20260509050259 16 257 0.0 0.0 0.00 0.00 0.00 42 971.5
20260509045801 16 257 0.0 0.0 0.00 0.00 0.00 42 971.3
20260509045300 16 257 0.0 3.2 0.00 0.00 0.00 43 971.3
20260509044800 16 257 0.0 3.2 0.00 0.00 0.00 42 971.2
20260509044259 16 257 0.0 1.6 0.00 0.00 0.00 41 971.2
20260509043802 17 257 0.0 1.6 0.00 0.00 0.00 40 971.2
20260509043306 17 257 0.0 3.2 0.00 0.00 0.00 37 971.2
20260509043259 17 257 0.0 3.2 0.00 0.00 0.00 38 971.1
20260509042259 17 255 0.0 1.6 0.00 0.00 0.00 36 971.1
20260509041800 17 268 0.0 1.6 0.00 0.00 0.00 36 971.0
20260509041258 17 189 0.0 1.6 0.00 0.00 0.00 32 970.9
20260509040800 17 175 0.0 0.0 0.00 0.00 0.00 30 970.9
20260509040259 17 175 0.0 1.6 0.00 0.00 0.00 30 970.8
20260509035800 18 175 0.0 4.8 0.00 0.00 0.00 30 970.7
20260509035258 18 264 0.0 4.8 0.00 0.00 0.00 29 970.6
20260509034801 18 169 0.0 1.6 0.00 0.00 0.00 28 970.6
20260509034258 18 165 0.0 6.4 0.00 0.00 0.00 28 970.4
20260509033759 18 168 1.6 6.4 0.00 0.00 0.00 28 970.3
20260509033255 18 176 0.0 9.7 0.00 0.00 0.00 28 970.2
20260509032759 18 104 0.0 11.3 0.00 0.00 0.00 28 970.2
20260509032256 18 93 1.6 11.3 0.00 0.00 0.00 28 969.9
20260509031807 18 34 0.0 3.2 0.00 0.00 0.00 28 969.6
20260509031759 18 79 0.0 1.6 0.00 0.00 0.00 28 969.7
20260509030759 19 65 0.0 11.3 0.00 0.00 0.00 30 969.5
20260509030304 19 56 1.6 9.7 0.00 0.00 0.00 26 969.2
20260509030256 19 59 0.0 11.3 0.00 0.00 0.00 27 969.4
20260509025306 20 66 1.6 16.1 0.00 0.00 0.00 26 969.0
20260509025256 19 56 0.0 16.1 0.00 0.00 0.00 26 969.1
20260509024257 20 51 0.0 6.4 0.00 0.00 0.00 25 968.8
20260509023757 20 0 0.0 11.3 0.00 0.00 0.00 25 968.8
20260509023257 20 66 1.6 19.3 0.00 0.00 0.00 25 968.7
20260509022758 20 52 1.6 25.7 0.00 0.00 0.00 24 968.6
20260509022306 20 63 3.2 14.5 0.00 0.00 0.00 24 968.5
20260509022257 20 66 0.0 25.7 0.00 0.00 0.00 24 968.3
20260509021304 21 83 1.6 19.3 0.00 0.00 0.00 24 968.2
20260509021256 21 358 0.0 19.3 0.00 0.00 0.00 24 968.3
20260509020255 21 54 1.6 17.7 0.00 0.00 0.00 23 968.0
20260509015757 21 75 1.6 24.1 0.00 0.00 0.00 22 967.9
20260509015255 21 58 8.0 25.7 0.00 0.00 0.00 21 967.8
20260509014806 21 37 3.2 19.3 0.00 0.00 0.00 20 967.8
20260509014758 21 55 8.0 25.7 0.00 0.00 0.00 21 967.8
20260509013805 22 59 1.6 19.3 0.00 0.00 0.00 21 967.6
20260509013756 22 49 0.0 19.3 0.00 0.00 0.00 21 967.7
20260509012756 22 61 0.0 14.5 0.00 0.00 0.00 20 967.7
20260509012302 22 47 1.6 20.9 0.00 0.00 0.00 19 967.7
20260509012254 22 71 1.6 20.9 0.00 0.00 0.00 20 967.7
20260509011300 22 41 1.6 19.3 0.00 0.00 0.00 19 967.6
20260509011254 22 27 6.4 19.3 0.00 0.00 0.00 19 967.7
20260509010913 22 31 4.8 22.5 0.00 0.00 0.00 19 967.6
20260509005803 22 8 3.2 17.7 0.00 0.00 0.00 18 967.5
20260509005754 22 3 3.2 22.5 0.00 0.00 0.00 18 967.6
20260509004754 23 0 0.0 27.4 0.00 0.00 0.00 19 967.5
20260509004254 23 16 3.2 27.4 0.00 0.00 0.00 19 967.6
20260509003755 23 4 6.4 17.7 0.00 0.00 0.00 19 967.6
20260509003253 23 0 6.4 14.5 0.00 0.00 0.00 18 967.5
20260509002803 24 0 0.0 11.3 0.00 0.00 0.00 18 967.5
20260509002755 23 327 0.0 11.3 0.00 0.00 0.00 19 967.6
20260509001755 24 13 3.2 11.3 0.00 0.00 0.00 18 967.6
20260509001253 24 6 0.0 6.4 0.00 0.00 0.00 18 967.6
20260509000754 24 347 0.0 4.8 0.00 0.00 0.00 18 967.7
20260509000252 24 326 0.0 8.0 0.00 0.00 0.00 18 967.6
20260508235752 24 345 0.0 8.0 0.00 0.00 0.00 18 967.7
20260508235253 25 343 0.0 6.4 0.00 0.00 0.00 17 967.6
20260508234753 25 358 0.0 9.7 0.00 0.00 0.00 17 967.7
20260508234259 25 353 0.0 14.5 0.00 0.00 0.00 17 967.6
20260508234252 25 353 0.0 11.3 0.00 0.00 0.00 17 967.7
20260508233251 25 0 4.8 17.7 0.00 0.00 0.00 17 967.7
20260508232752 25 20 0.0 17.7 0.00 0.00 0.00 17 967.7
20260508232252 25 296 0.0 24.1 0.00 0.00 0.00 17 967.8
20260508231801 25 326 3.2 19.3 0.00 0.00 0.00 17 967.8
20260508231753 25 8 9.7 24.1 0.00 0.00 0.00 16 967.8
20260508230800 25 319 0.0 14.5 0.00 0.00 0.00 17 967.8
20260508230754 25 336 0.0 8.0 0.00 0.00 0.00 16 967.8
20260508225751 25 8 1.6 14.5 0.00 0.00 0.00 16 967.8
20260508225251 25 323 1.6 17.7 0.00 0.00 0.00 16 967.9
20260508224750 25 251 4.8 30.6 0.00 0.00 0.00 17 967.8
20260508224256 25 327 0.0 24.1 0.00 0.00 0.00 16 968.0
20260508224250 25 6 3.2 30.6 0.00 0.00 0.00 17 968.0
20260508223257 25 7 1.6 24.1 0.00 0.00 0.00 17 968.0
20260508223249 25 317 3.2 22.5 0.00 0.00 0.00 16 968.0
20260508222251 25 11 4.8 24.1 0.00 0.00 0.00 16 968.1
20260508221752 25 257 0.0 25.7 0.00 0.00 0.00 16 968.0
20260508221250 25 336 4.8 41.8 0.00 0.00 0.00 15 968.1
20260508220751 25 348 12.9 41.8 0.00 0.00 0.00 16 968.1
20260508220248 26 289 0.0 25.7 0.00 0.00 0.00 17 968.1
20260508215759 25 344 0.0 22.5 0.00 0.00 0.00 17 968.2
20260508215751 26 283 3.2 24.1 0.00 0.00 0.00 16 968.3
20260508214751 25 329 6.4 22.5 0.00 0.00 0.00 16 968.3
20260508214249 25 324 3.2 16.1 0.00 0.00 0.00 16 968.3
20260508213751 25 345 0.0 20.9 0.00 0.00 0.00 16 968.5
20260508213249 25 345 1.6 22.5 0.00 0.00 0.00 16 968.5
20260508212750 25 326 9.7 22.5 0.00 0.00 0.00 16 968.6
20260508212248 25 13 0.0 20.9 0.00 0.00 0.00 18 968.5
20260508211749 25 11 0.0 25.7 0.00 0.00 0.00 16 968.5
20260508211247 25 338 14.5 25.7 0.00 0.00 0.00 17 968.6
20260508210749 25 7 0.0 22.5 0.00 0.00 0.00 16 968.6
20260508210249 25 16 1.6 27.4 0.00 0.00 0.00 17 968.7
20260508205749 25 320 6.4 30.6 0.00 0.00 0.00 16 968.6
20260508205247 25 302 17.7 30.6 0.00 0.00 0.00 17 968.6
20260508204749 25 1 6.4 19.3 0.00 0.00 0.00 16 968.6
20260508204252 25 0 9.7 25.7 0.00 0.00 0.00 17 968.6
20260508204246 25 353 3.2 25.7 0.00 0.00 0.00 16 968.7
20260508203247 25 354 0.0 25.7 0.00 0.00 0.00 17 968.6
20260508202749 25 348 4.8 22.5 0.00 0.00 0.00 17 968.6
20260508202246 25 330 8.0 22.5 0.00 0.00 0.00 17 968.7
20260508201749 25 283 3.2 20.9 0.00 0.00 0.00 17 968.7
20260508201247 25 336 0.0 25.7 0.00 0.00 0.00 19 968.7
20260508200748 25 337 4.8 25.7 0.00 0.00 0.00 17 968.8
20260508200246 24 20 8.0 25.7 0.00 0.00 0.00 18 968.7
20260508195747 24 319 8.0 33.8 0.00 0.00 0.00 18 968.9
20260508195247 24 293 14.5 35.4 0.00 0.00 0.00 17 968.9
20260508194754 24 333 11.3 29.0 0.00 0.00 0.00 18 968.8
20260508194746 24 338 4.8 35.4 0.00 0.00 0.00 18 968.7
20260508193755 24 312 8.0 29.0 0.00 0.00 0.00 19 968.8
20260508193747 24 0 4.8 29.0 0.00 0.00 0.00 19 968.7
20260508193412 24 343 0.0 35.4 0.00 0.00 0.00 19 968.8
20260508192245 24 289 12.9 35.4 0.00 0.00 0.00 19 968.9
20260508191754 23 295 9.7 29.0 0.00 0.00 0.00 20 969.0
20260508191746 24 254 3.2 24.1 0.00 0.00 0.00 19 969.0
20260508190747 23 316 9.7 30.6 0.00 0.00 0.00 19 969.0
20260508190244 23 320 4.8 30.6 0.00 0.00 0.00 20 969.1
20260508185747 23 300 4.8 32.2 0.00 0.00 0.00 21 969.1
20260508185244 23 266 8.0 32.2 0.00 0.00 0.00 20 969.2
20260508184746 23 329 14.5 27.4 0.00 0.00 0.00 21 969.2
20260508184244 23 317 14.5 29.0 0.00 0.00 0.00 20 969.3
20260508183754 23 285 19.3 33.8 0.00 0.00 0.00 20 969.5
20260508183745 23 321 19.3 33.8 0.00 0.00 0.00 21 969.4
20260508183409 22 321 12.9 32.2 0.00 0.00 0.00 21 969.4
20260508182245 22 319 14.5 32.2 0.00 0.00 0.00 21 969.5
20260508181745 22 312 9.7 29.0 0.00 0.00 0.00 21 969.5
20260508181245 22 0 16.1 29.0 0.00 0.00 0.00 22 969.6
20260508180752 22 313 9.7 30.6 0.00 0.00 0.00 22 969.6
20260508180745 22 0 6.4 27.4 0.00 0.00 0.00 22 969.6
20260508175752 22 333 11.3 25.7 0.00 0.00 0.00 22 969.7
20260508175744 22 338 6.4 30.6 0.00 0.00 0.00 23 969.7
20260508174745 22 319 4.8 30.6 0.00 0.00 0.00 23 969.8
20260508174242 22 321 11.3 30.6 0.00 0.00 0.00 22 969.8
20260508173745 22 296 3.2 24.1 0.00 0.00 0.00 22 969.8
20260508173243 22 350 6.4 25.7 0.00 0.00 0.00 23 969.9
20260508172742 22 326 6.4 29.0 0.00 0.00 0.00 24 969.8
20260508172243 21 0 14.5 29.0 0.00 0.00 0.00 23 969.9
20260508171742 21 330 12.9 27.4 0.00 0.00 0.00 24 969.9
20260508171243 21 302 12.9 27.4 0.00 0.00 0.00 24 969.9
20260508170743 21 254 14.5 25.7 0.00 0.00 0.00 25 969.9
20260508170243 20 333 11.3 37.0 0.00 0.00 0.00 25 969.9
20260508165743 20 310 16.1 37.0 0.00 0.00 0.00 25 969.9
20260508165249 20 276 6.4 20.9 0.00 0.00 0.00 30 969.9
20260508165242 21 319 20.9 30.6 0.00 0.00 0.00 28 969.9
20260508164241 20 331 6.4 19.3 0.00 0.00 0.00 30 969.9
20260508163744 20 266 6.4 24.1 0.00 0.00 0.00 32 970.0
20260508163240 19 292 16.1 27.4 0.00 0.00 0.00 32 970.0
20260508162743 19 303 17.7 27.4 0.00 0.00 0.00 32 970.1
20260508162248 19 326 11.3 22.5 0.00 0.00 0.00 33 970.0
20260508162241 19 293 16.1 25.7 0.00 0.00 0.00 32 970.1
20260508161240 18 266 9.7 20.9 0.00 0.00 0.00 36 970.1
20260508160743 18 0 11.3 20.9 0.00 0.00 0.00 36 970.1
20260508160240 18 310 12.9 19.3 0.00 0.00 0.00 36 970.1
20260508155740 18 282 9.7 17.7 0.00 0.00 0.00 36 970.1
20260508155241 18 293 8.0 19.3 0.00 0.00 0.00 38 970.1
20260508154749 17 329 12.9 19.3 0.00 0.00 0.00 38 970.1
20260508154741 17 329 8.0 19.3 0.00 0.00 0.00 38 970.0
20260508153741 17 302 11.3 19.3 0.00 0.00 0.00 40 970.0
20260508153239 17 292 9.7 16.1 0.00 0.00 0.00 42 970.1
20260508152751 17 274 11.3 19.3 0.00 0.00 0.00 43 970.3
20260508152743 17 283 9.7 19.3 0.00 0.00 0.00 42 970.2
20260508151741 16 266 8.0 17.7 0.00 0.00 0.00 46 970.4
20260508151238 16 264 9.7 19.3 0.00 0.00 0.00 47 970.4
20260508150740 15 259 9.7 19.3 0.00 0.00 0.00 50 970.4
20260508150239 15 314 9.7 11.3 0.00 0.00 0.00 54 970.4
20260508145741 14 254 1.6 3.2 0.00 0.00 0.00 59 970.4
20260508145238 13 254 1.6 3.2 0.00 0.00 0.00 61 970.6
20260508144748 12 254 3.2 6.4 0.00 0.00 0.00 63 970.4
20260508144741 13 254 1.6 4.8 0.00 0.00 0.00 63 970.4
20260508143739 12 254 3.2 6.4 0.00 0.00 0.00 65 970.6
20260508143238 11 261 1.6 6.4 0.00 0.00 0.00 68 970.6
20260508142740 11 261 3.2 6.4 0.00 0.00 0.00 69 970.6
20260508142238 10 261 1.6 4.8 0.00 0.00 0.00 72 970.7
20260508141748 10 259 1.6 4.8 0.00 0.00 0.00 74 970.6
20260508141741 10 261 1.6 4.8 0.00 0.00 0.00 73 970.6
20260508140739 9 259 3.2 6.4 0.00 0.00 0.00 76 970.6
20260508140237 9 259 3.2 6.4 0.00 0.00 0.00 78 970.6
20260508135739 8 259 3.2 4.8 0.00 0.00 0.00 80 970.6
20260508135237 8 259 3.2 4.8 0.00 0.00 0.00 81 970.6
20260508134738 8 259 1.6 4.8 0.00 0.00 0.00 81 970.6
20260508134236 8 259 1.6 4.8 0.00 0.00 0.00 81 970.7
20260508133747 7 259 0.0 1.6 0.00 0.00 0.00 82 970.6
20260508133739 7 259 0.0 1.6 0.00 0.00 0.00 82 970.7
20260508132738 7 259 0.0 0.0 0.00 0.00 0.00 82 970.6
20260508132237 7 259 0.0 1.6 0.00 0.00 0.00 82 970.6
20260508131739 7 259 0.0 1.6 0.00 0.00 0.00 83 970.6
20260508131236 7 259 0.0 0.0 0.00 0.00 0.00 84 970.4
20260508130745 6 259 0.0 0.0 0.00 0.00 0.00 84 970.4
20260508130738 6 259 0.0 0.0 0.00 0.00 0.00 84 970.4
20260508125738 6 259 0.0 0.0 0.00 0.00 0.00 84 970.6
20260508125236 6 259 0.0 1.6 0.00 0.00 0.00 84 970.6
20260508124737 6 259 0.0 1.6 0.00 0.00 0.00 84 970.4
20260508124236 6 259 0.0 3.2 0.00 0.00 0.00 84 970.6
20260508123736 6 259 0.0 3.2 0.00 0.00 0.00 84 970.6
20260508123235 6 259 1.6 3.2 0.00 0.00 0.00 84 970.6
20260508122737 6 259 1.6 4.8 0.00 0.00 0.00 84 970.6
20260508122234 6 259 1.6 6.4 0.00 0.00 0.00 84 970.6
20260508121735 6 259 1.6 6.4 0.00 0.00 0.00 84 970.6
20260508121235 6 258 3.2 8.0 0.00 0.00 0.00 84 970.6
20260508120743 6 266 4.8 9.7 0.00 0.00 0.00 85 970.6
20260508120735 6 292 4.8 8.0 0.00 0.00 0.00 85 970.6
20260508115736 6 268 3.2 9.7 0.00 0.00 0.00 86 970.6
20260508115234 6 257 6.4 9.7 0.00 0.00 0.00 85 970.7
20260508114736 6 245 3.2 4.8 0.00 0.00 0.00 85 970.7
20260508114234 6 245 3.2 4.8 0.00 0.00 0.00 85 970.6
20260508113734 6 245 3.2 6.4 0.00 0.00 0.00 85 970.6
20260508113234 6 248 0.0 6.4 0.00 0.00 0.00 85 970.7
20260508112735 6 269 1.6 8.0 0.00 0.00 0.00 85 970.7
20260508112234 6 279 0.0 9.7 0.00 0.00 0.00 85 970.7
20260508111735 6 275 1.6 9.7 0.00 0.00 0.00 85 970.8
20260508111233 6 259 1.6 8.0 0.00 0.00 0.00 85 970.7
20260508110735 6 245 0.0 4.8 0.00 0.00 0.00 84 970.8
20260508110239 6 252 3.2 4.8 0.00 0.00 0.00 84 970.8
20260508110232 6 252 1.6 4.8 0.00 0.00 0.00 84 970.8
20260508105232 6 254 3.2 4.8 0.00 0.00 0.00 84 970.8
20260508104735 6 254 3.2 4.8 0.00 0.00 0.00 83 970.8
20260508104233 6 254 0.0 4.8 0.00 0.00 0.00 83 970.9
20260508103734 6 254 0.0 4.8 0.00 0.00 0.00 83 970.9
20260508103232 7 254 0.0 4.8 0.00 0.00 0.00 82 970.8
20260508102734 7 254 0.0 0.0 0.00 0.00 0.00 82 970.8
20260508102232 7 254 0.0 3.2 0.00 0.00 0.00 81 970.8
20260508101732 7 254 0.0 4.8 0.00 0.00 0.00 81 970.8
20260508101232 7 254 1.6 4.8 0.00 0.00 0.00 80 970.8
20260508100733 7 254 0.0 6.4 0.00 0.00 0.00 80 970.7
20260508100233 7 254 0.0 9.7 0.00 0.00 0.00 80 970.7
20260508095733 7 274 0.0 9.7 0.00 0.00 0.00 79 970.7
20260508095238 8 240 1.6 6.4 0.00 0.00 0.00 79 970.8
20260508095231 8 262 0.0 9.7 0.00 0.00 0.00 79 970.8
20260508094230 8 228 1.6 4.8 0.00 0.00 0.00 78 970.8
20260508093731 8 261 0.0 4.8 0.00 0.00 0.00 78 970.8
20260508093230 8 261 0.0 9.7 0.00 0.00 0.00 77 970.8
20260508092733 8 259 0.0 9.7 0.00 0.00 0.00 78 970.9
20260508092238 8 255 0.0 6.4 0.00 0.00 0.00 78 970.9
20260508092231 8 262 0.0 6.4 0.00 0.00 0.00 78 970.9
20260508091236 8 276 1.6 9.7 0.00 0.00 0.00 78 971.1
20260508091231 8 268 0.0 9.7 0.00 0.00 0.00 78 971.0
20260508090858 8 281 0.0 4.8 0.00 0.00 0.00 77 971.0
20260508085732 8 268 0.0 0.0 0.00 0.00 0.00 77 971.0
20260508085230 8 266 0.0 8.0 0.00 0.00 0.00 77 971.1
20260508084730 8 269 0.0 9.7 0.00 0.00 0.00 77 971.1
20260508084231 8 281 0.0 9.7 0.00 0.00 0.00 78 971.1
20260508083731 8 255 0.0 9.7 0.00 0.00 0.00 77 971.1
20260508083231 8 275 0.0 11.3 0.00 0.00 0.00 78 971.0
20260508082739 8 283 1.6 3.2 0.00 0.00 0.00 77 971.2
20260508082731 8 293 1.6 11.3 0.00 0.00 0.00 77 971.1
20260508082354 8 283 1.6 4.8 0.00 0.00 0.00 77 971.1
20260508081236 8 302 0.0 9.7 0.00 0.00 0.00 76 971.2
20260508081229 8 283 0.0 8.0 0.00 0.00 0.00 76 971.1
20260508080228 8 306 0.0 9.7 0.00 0.00 0.00 76 971.1
20260508075731 8 299 3.2 9.7 0.00 0.00 0.00 75 971.1
20260508075228 8 290 0.0 8.0 0.00 0.00 0.00 75 971.1
20260508074738 8 272 0.0 14.5 0.00 0.00 0.00 74 971.2
20260508074731 8 293 0.0 8.0 0.00 0.00 0.00 75 971.1
20260508073736 9 300 0.0 11.3 0.00 0.00 0.00 74 971.1
20260508073729 9 276 1.6 14.5 0.00 0.00 0.00 74 971.2
20260508072729 9 290 0.0 9.7 0.00 0.00 0.00 74 971.1
20260508072228 9 275 0.0 1.6 0.00 0.00 0.00 74 971.2
20260508071730 9 224 0.0 0.0 0.00 0.00 0.00 74 971.2
20260508071228 9 224 0.0 0.0 0.00 0.00 0.00 74 971.2
20260508070729 10 224 0.0 1.6 0.00 0.00 0.00 73 971.4
20260508070228 10 224 0.0 3.2 0.00 0.00 0.00 73 971.4
20260508065729 10 224 0.0 3.2 0.00 0.00 0.00 73 971.4
20260508065227 10 224 0.0 4.8 0.00 0.00 0.00 72 971.4
20260508064728 10 224 0.0 4.8 0.00 0.00 0.00 71 971.4
20260508064235 10 223 0.0 0.0 0.00 0.00 0.00 71 971.4
20260508064227 10 223 0.0 1.6 0.00 0.00 0.00 71 971.4
20260508063226 10 223 0.0 0.0 0.00 0.00 0.00 70 971.4
20260508062729 10 223 0.0 1.6 0.00 0.00 0.00 70 971.4
20260508062233 11 223 0.0 0.0 0.00 0.00 0.00 69 971.4
20260508062226 10 223 0.0 1.6 0.00 0.00 0.00 70 971.5
20260508061227 11 223 0.0 0.0 0.00 0.00 0.00 68 971.5
20260508060728 11 223 0.0 0.0 0.00 0.00 0.00 67 971.5
20260508060232 11 223 0.0 0.0 0.00 0.00 0.00 67 971.3
20260508060226 11 223 0.0 0.0 0.00 0.00 0.00 67 971.4